Regional Weather Roundup
Issued by NWS

Home | Current Version | Previous Version | Text Only | Print | Product List | Glossary Off
Versions: 1 2 3 4 5 6 7 8 9 10 11 12 13 14 15 16 17 18 19 20 21 22 23 24 25 26 27 28 29 30 31 32 33 34 35 36 37 38 39 40 41 42 43 44 45 46 47 48 49 50

000
ASUS43 KIND 072059
RWRIN

WEATHER ROUNDUP FOR INDIANA
NATIONAL WEATHER SERVICE INDIANAPOLIS IN
500 PM EDT TUE JUL 07 2015

NOTE: "FAIR" INDICATES FEW OR NO CLOUDS BELOW 12,000 FEET WITH NO
SIGNIFICANT WEATHER AND/OR OBSTRUCTIONS TO VISIBILITY.

* - STATION DOES NOT REPORT WEATHER SUCH AS PRECIPITATION OR FOG.

+ - STATION NOT QUALITY CONTROLLED BY THE NATIONAL WEATHER SERVICE.
    USE DATA WITH CAUTION...ESPECIALLY DEWPOINT AND RELATIVE
    HUMIDITY OBSERVATIONS.

INZ001>003-010>013-019-020-072200-
NORTHWEST INDIANA

CITY           SKY/WX    TMP DP  RH WIND       PRES   REMARKS
GARY /AIRPORT/ MOSUNNY   64  50  59 N17G29    30.05S
RENSSELAER +   CLOUDY    66  54  63 N14G24    30.02R

$$

LMZ046-743>745-072200-
SOUTHERN LAKE MICHIGAN

STATION/POSITION TIME  TEMP    WIND        PRES    WAVE
                       AIR SEA DIR/SP/G            HT
                 (UTC) (F)     (DEG/KT/KT) (MB)    (FT)
BURNS HARBOR     2000   61      20/ 20/ 25 1017.6R
MICHIGAN CITY    2000   60     350/ 24/ 26   N/A
5NW MICH CITY    2000   61 65   30/ 17/ 25   N/A     8

$$

INZ004-005-014>016-021>024-072200-
NORTH CENTRAL INDIANA

CITY           SKY/WX    TMP DP  RH WIND       PRES   REMARKS
ELKHART        SUNNY     68  50  52 NW14G20   29.99R
GOSHEN         CLOUDY    70  58  65 NW13      29.96S
SOUTH BEND     SUNNY     67  50  54 N18G24    30.01R

$$

INZ006>009-017-018-025>027-072200-
NORTHEAST INDIANA

CITY           SKY/WX    TMP DP  RH WIND       PRES   REMARKS
ANGOLA *+      PTSUNNY   66  57  72 N3        29.96R
FORT WAYNE     CLOUDY    69  63  81 N12       29.95R

$$

INZ028-029-035-036-043>045-051>053-072200-
WEST CENTRAL INDIANA

CITY           SKY/WX    TMP DP  RH WIND       PRES   REMARKS
CRAWFORDSVL +  CLOUDY    63  60  89 N8        29.99R
GREENCASTLE +  CLOUDY    64  61  88 N12       29.98R HAZE
LAFAYETTE      CLOUDY    66  55  67 N16G22    29.99R
TERRE HAUTE    CLOUDY    67  64  90 N12       29.98R

$$

INZ030>032-037>040-046>048-054>057-064-065-072200-
CENTRAL INDIANA

CITY           SKY/WX    TMP DP  RH WIND       PRES   REMARKS
GREENWOOD *+   CLOUDY    72  70  94 NE8       29.92F
INDIANAPOLIS   RAIN      68  64  87 N16       29.93R FOG
-EAGLE CREEK   LGT RAIN  67  65  93 N12       29.94R
KOKOMO *+      CLOUDY    66  61  82 N13       29.96S
MT COMFORT *+  CLOUDY    72 N/A N/A CALM      29.93F
SHELBYVILLE    RAIN      74  71  91 S12       29.91F FOG

$$

INZ033-034-041-042-049-050-058-059-072200-
EAST CENTRAL INDIANA

CITY           SKY/WX    TMP DP  RH WIND       PRES   REMARKS
MUNCIE         LGT RAIN  71  69  93 NW10      29.94R

$$

INZ060-061-067>069-081>083-085>088-072200-
SOUTHWEST INDIANA

CITY           SKY/WX    TMP DP  RH WIND       PRES   REMARKS
EVANSVILLE     HVY RAIN  73  71  93 VRB3      29.99S VSB 3/4
HUNTINGBURG *+ CLOUDY    75  70  83 SW12G17   29.99S

$$

INZ062-063-066-070>080-084-089>092-072200-
SOUTH CENTRAL AND SOUTHEAST INDIANA

CITY           SKY/WX    TMP DP  RH WIND       PRES   REMARKS
BLOOMINGTON    HVY RAIN  74  72  93 W12G17    29.95R FOG
MADISON *+     CLOUDY    73  70  88 SW10G16   30.00S
SEYMOUR +      LGT RAIN  73  72  94 SW12      29.95R

$$



USA.gov is the U.S. government's official web portal to all federal, state and local government web resources and services.